When you browse on this site, cookies collect data to enhance your experience and personalize the content and advertising you see.
Visit our Privacy Policy to learn more. By continuing to use the site, you agree to this use of cookies and data.
  • In Latvia
  • List of Countries
  • For 7 days
  • Water Temperature
  • Weather Map
  • Weather Widgets
  • user-avatar
    Login

    Hourly Weather Pittsburgh

    Today, 18 October, Friday

    Time Temperature Precipitation Wind Pressure Humidity
    00:00 +6°C° 0 mm 2 mps 737 mmHg 75%
    01:00 +5°C° 0 mm 2 mps 737 mmHg 79%
    02:00 +5°C° 0 mm 2 mps 738 mmHg 79%
    03:00 +6°C° 0 mm 2 mps 738 mmHg 79%
    04:00 +6°C° 0 mm 2 mps 738 mmHg 79%
    05:00 +5°C° 0 mm 2 mps 739 mmHg 81%
    06:00 +5°C° 0 mm 2 mps 739 mmHg 82%
    07:00 +5°C° 0 mm 2 mps 740 mmHg 84%
    08:00 +6°C° 0 mm 2 mps 740 mmHg 76%
    09:00 +8°C° 0 mm 3 mps 741 mmHg 69%
    10:00 +10°C° 0 mm 4 mps 741 mmHg 61%
    11:00 +10°C° 0 mm 3 mps 741 mmHg 59%
    12:00 +11°C° 0 mm 3 mps 741 mmHg 56%
    13:00 +12°C° 0 mm 2 mps 740 mmHg 54%
    14:00 +13°C° 0 mm 2 mps 740 mmHg 54%
    15:00 +13°C° 0 mm 2 mps 740 mmHg 54%
    16:00 +13°C° 0 mm 1 mps 739 mmHg 55%
    17:00 +11°C° 0 mm 1 mps 740 mmHg 62%
    18:00 +8°C° 0 mm 0 mps 740 mmHg 70%
    19:00 +7°C° 0 mm 0 mps 741 mmHg 77%
    20:00 +6°C° 0 mm 0 mps 741 mmHg 79%
    21:00 +6°C° 0 mm 0 mps 741 mmHg 80%
    22:00 +6°C° 0 mm 1 mps 741 mmHg 82%
    23:00 +6°C° 0 mm 1 mps 741 mmHg 83%

    Tomorrow, 19 October, Saturday

    Time Temperature Precipitation Wind Pressure Humidity
    00:00 +6°C° 0 mm 1 mps 741 mmHg 85%
    01:00 +5°C° 0 mm 1 mps 741 mmHg 86%
    02:00 +5°C° 0 mm 1 mps 741 mmHg 87%
    03:00 +5°C° 0 mm 1 mps 740 mmHg 87%
    04:00 +5°C° 0 mm 1 mps 740 mmHg 88%
    05:00 +5°C° 0 mm 1 mps 740 mmHg 88%
    06:00 +4°C° 0 mm 1 mps 740 mmHg 88%
    07:00 +4°C° 0 mm 1 mps 740 mmHg 88%
    08:00 +7°C° 0 mm 1 mps 740 mmHg 77%
    09:00 +10°C° 0 mm 1 mps 739 mmHg 66%
    10:00 +12°C° 0 mm 1 mps 739 mmHg 55%
    11:00 +14°C° 0 mm 1 mps 739 mmHg 50%
    12:00 +16°C° 0 mm 1 mps 738 mmHg 45%
    13:00 +19°C° 0 mm 1 mps 738 mmHg 40%
    14:00 +19°C° 0 mm 1 mps 737 mmHg 44%
    15:00 +19°C° 0 mm 1 mps 737 mmHg 48%
    16:00 +17°C° 0 mm 0 mps 736 mmHg 52%
    17:00 +16°C° 0 mm 1 mps 736 mmHg 58%
    18:00 +14°C° 0 mm 1 mps 737 mmHg 64%
    19:00 +12°C° 0 mm 1 mps 737 mmHg 70%
    20:00 +12°C° 0 mm 1 mps 737 mmHg 73%
    21:00 +11°C° 0 mm 1 mps 737 mmHg 75%
    22:00 +11°C° 0 mm 1 mps 737 mmHg 78%
    23:00 +11°C° 0 mm 1 mps 736 mmHg 80%

    Day after tomorrow, 20 October, Sunday

    Time Temperature Precipitation Wind Pressure Humidity
    00:00 +10°C° 0 mm 1 mps 736 mmHg 82%
    01:00 +9°C° 0 mm 0 mps 736 mmHg 84%
    02:00 +9°C° 0 mm 0 mps 736 mmHg 85%
    03:00 +8°C° 0 mm 0 mps 736 mmHg 86%
    04:00 +8°C° 0 mm 0 mps 736 mmHg 86%
    05:00 +8°C° 0 mm 0 mps 736 mmHg 86%
    06:00 +8°C° 0 mm 0 mps 737 mmHg 87%
    07:00 +8°C° 0 mm 0 mps 737 mmHg 87%
    08:00 +10°C° 0 mm 0 mps 737 mmHg 78%
    09:00 +13°C° 0 mm 0 mps 737 mmHg 68%
    10:00 +16°C° 0 mm 0 mps 738 mmHg 59%
    11:00 +17°C° 0 mm 0 mps 738 mmHg 55%
    12:00 +19°C° 0 mm 0 mps 737 mmHg 50%
    13:00 +22°C° 0 mm 1 mps 737 mmHg 46%
    14:00 +20°C° 0 mm 0 mps 737 mmHg 48%
    15:00 +20°C° 0 mm 0 mps 737 mmHg 50%
    16:00 +19°C° 0 mm 0 mps 737 mmHg 52%
    17:00 +17°C° 0 mm 0 mps 738 mmHg 57%
    18:00 +15°C° 0 mm 0 mps 738 mmHg 63%
    19:00 +13°C° 0 mm 0 mps 738 mmHg 68%
    20:00 +13°C° 0 mm 1 mps 738 mmHg 71%
    21:00 +13°C° 0 mm 1 mps 739 mmHg 74%
    22:00 +12°C° 0 mm 1 mps 739 mmHg 77%
    23:00 +12°C° 0 mm 1 mps 739 mmHg 79%

    21 October, Monday

    Time Temperature Precipitation Wind Pressure Humidity
    00:00 +11°C° 0 mm 1 mps 739 mmHg 81%
    01:00 +11°C° 0 mm 1 mps 739 mmHg 83%
    02:00 +11°C° 0 mm 1 mps 739 mmHg 85%
    03:00 +11°C° 0 mm 1 mps 739 mmHg 87%
    04:00 +11°C° 0 mm 1 mps 739 mmHg 89%
    05:00 +11°C° 0 mm 1 mps 739 mmHg 89%
    06:00 +11°C° 0 mm 1 mps 739 mmHg 89%
    07:00 +10°C° 0 mm 2 mps 739 mmHg 89%
    08:00 +13°C° 0 mm 2 mps 739 mmHg 82%
    09:00 +15°C° 0 mm 2 mps 739 mmHg 74%
    10:00 +17°C° 0 mm 3 mps 739 mmHg 66%
    11:00 +19°C° 0 mm 3 mps 738 mmHg 62%
    12:00 +21°C° 0 mm 3 mps 738 mmHg 58%
    13:00 +24°C° 0 mm 3 mps 737 mmHg 54%
    14:00 +24°C° 0 mm 3 mps 737 mmHg 57%
    15:00 +22°C° 0 mm 3 mps 736 mmHg 60%
    16:00 +22°C° 0 mm 3 mps 736 mmHg 63%
    17:00 +21°C° 0 mm 4 mps 736 mmHg 65%
    18:00 +20°C° 0 mm 4 mps 735 mmHg 67%
    19:00 +19°C° 0 mm 5 mps 735 mmHg 70%
    20:00 +18°C° 0.4 mm 4 mps 735 mmHg 74%
    21:00 +17°C° 0.4 mm 3 mps 735 mmHg 79%
    22:00 +17°C° 0.4 mm 3 mps 734 mmHg 83%
    23:00 +17°C° 1.2 mm 3 mps 734 mmHg 85%

    22 October, Tuesday

    Time Temperature Precipitation Wind Pressure Humidity
    00:00 +16°C° 1.2 mm 3 mps 734 mmHg 88%
    01:00 +16°C° 1.2 mm 3 mps 733 mmHg 91%
    02:00 +15°C° 1 mm 4 mps 733 mmHg 91%
    03:00 +15°C° 1 mm 4 mps 733 mmHg 92%
    04:00 +15°C° 1 mm 4 mps 732 mmHg 92%
    05:00 +15°C° 2.2 mm 4 mps 732 mmHg 92%
    06:00 +14°C° 2.2 mm 4 mps 732 mmHg 92%
    07:00 +14°C° 2.2 mm 3 mps 732 mmHg 91%
    08:00 +14°C° 0.4 mm 4 mps 732 mmHg 85%
    09:00 +14°C° 0.4 mm 4 mps 733 mmHg 78%
    10:00 +14°C° 0.4 mm 5 mps 733 mmHg 71%
    11:00 +14°C° 0 mm 5 mps 733 mmHg 65%
    12:00 +14°C° 0 mm 5 mps 733 mmHg 60%
    13:00 +15°C° 0 mm 6 mps 733 mmHg 54%
    14:00 +14°C° 0 mm 5 mps 733 mmHg 57%
    15:00 +13°C° 0 mm 5 mps 733 mmHg 59%
    16:00 +12°C° 0 mm 5 mps 733 mmHg 61%
    17:00 +10°C° 0.1 mm 5 mps 734 mmHg 63%
    18:00 +9°C° 0.1 mm 5 mps 734 mmHg 64%
    19:00 +9°C° 0.1 mm 5 mps 735 mmHg 66%
    20:00 +9°C° 0 mm 5 mps 735 mmHg 65%
    21:00 +9°C° 0 mm 5 mps 735 mmHg 64%
    22:00 +8°C° 0 mm 5 mps 735 mmHg 63%
    23:00 +8°C° 0 mm 4 mps 736 mmHg 65%

    23 October, Wednesday

    Time Temperature Precipitation Wind Pressure Humidity
    00:00 +7°C° 0 mm 4 mps 736 mmHg 67%
    01:00 +7°C° 0 mm 4 mps 736 mmHg 69%
    02:00 +6°C° 0 mm 4 mps 736 mmHg 70%
    03:00 +5°C° 0 mm 4 mps 736 mmHg 71%
    04:00 +5°C° 0 mm 4 mps 737 mmHg 73%
    05:00 +5°C° 0 mm 4 mps 737 mmHg 74%
    06:00 +4°C° 0 mm 4 mps 738 mmHg 75%
    07:00 +4°C° 0 mm 4 mps 738 mmHg 76%
    08:00 +5°C° 0 mm 4 mps 739 mmHg 69%
    09:00 +7°C° 0 mm 4 mps 739 mmHg 63%
    10:00 +8°C° 0 mm 5 mps 740 mmHg 56%
    11:00 +9°C° 0 mm 5 mps 740 mmHg 51%
    12:00 +12°C° 0 mm 4 mps 740 mmHg 47%
    13:00 +13°C° 0 mm 4 mps 740 mmHg 43%
    14:00 +13°C° 0 mm 4 mps 740 mmHg 44%
    15:00 +13°C° 0 mm 3 mps 740 mmHg 46%
    16:00 +13°C° 0 mm 3 mps 740 mmHg 48%
    17:00 +12°C° 0 mm 3 mps 740 mmHg 53%
    18:00 +10°C° 0 mm 3 mps 740 mmHg 58%
    19:00 +9°C° 0 mm 3 mps 741 mmHg 62%
    20:00 +9°C° 0 mm 3 mps 741 mmHg 62%
    21:00 +9°C° 0 mm 3 mps 741 mmHg 62%
    22:00 +8°C° 0 mm 3 mps 741 mmHg 61%
    23:00 +8°C° 0 mm 3 mps 741 mmHg 62%
    Show more